[Date Prev][Date Next][Thread Prev][Thread Next] - [Date Index][Thread Index][Author Index]

2 Line ISS Keps 10-22



ISS
1 25544U 98067A   02295.14178241  .00030716  00000-0  41950-3 0  2897
2 25544  51.6345 135.3883 0015146  58.8086  84.9033 15.57064278223772


----
Via the sarex mailing list at AMSAT.ORG courtesy of AMSAT-NA.
To unsubscribe, send "unsubscribe sarex" to Majordomo@amsat.org



AMSAT Top AMSAT Home